Weather observations for the past three days for
Sacramento Executive Airport
Imperial (Metric)
Date Time (pdt) Wind (mph) Vis. (mi.) Weather Sky Cond. Temperature (ºF) Relative Humidity Wind Chill (°F) Heat Index (°F) Pressure Precipitation (in)
Air Dwpt 6 hour altimeter (in) sea level (mb) 1 hr 3 hr 6 hr
Max. Min.
17 20:53 SW 5 10.00 Fair CLR 77 57 50% 79 29.91 1012.8
17 19:53 SW 8 10.00 Fair CLR 82.9 57.9 43% 83 29.9 1012.5
17 18:53 SW 7 10.00 Fair CLR 87.1 57 36% 86 29.91 1012.6
17 17:53 S 6 10.00 Fair CLR 91 55 30% 89 29.91 1012.8
17 16:53 W 8 10.00 Fair CLR 90 55 91 72 31% 88 29.92 1013.2
17 15:53 W 6 10.00 Fair CLR 90 51.1 26% 87 29.94 1014.0
17 14:53 SW 6 10.00 Fair CLR 87.1 52 30% 85 29.96 1014.5
17 13:53 SW 7 10.00 Fair CLR 84.9 55 36% 84 29.98 1015.2
17 12:53 Vrbl 3 10.00 Fair CLR 81 53.1 38% 80 30 1015.9
17 11:53 Calm 10.00 Fair CLR 75.9 53.1 45% 78 30.01 1016.1
17 10:53 Vrbl 5 10.00 Fair CLR 72 53.1 72 55 52% 30.01 1016.3
17 09:53 Vrbl 3 10.00 Fair CLR 66.9 53.1 61% 30.01 1016.3
17 08:53 Calm 10.00 Fair CLR 63 53.1 70% 30.01 1016.3
17 07:53 S 5 10.00 Fair CLR 60.1 53.1 78% 30.01 1016.0
17 06:53 S 6 10.00 Fair CLR 55.9 52 87% 29.99 1015.4
17 05:53 S 6 10.00 Fair CLR 55.9 52 87% 29.97 1014.9
17 04:53 S 7 10.00 Fair CLR 55.9 52 62.1 55.9 87% 29.97 1014.7
17 03:53 S 9 10.00 Fair CLR 57 52 83% 29.96 1014.3
17 02:53 S 10 10.00 Fair CLR 57 51.1 81% 29.96 1014.5
17 01:53 S 6 10.00 Fair CLR 57.9 51.1 78% 29.97 1014.8
17 00:53 S 10 G 17 10.00 Fair CLR 59 50 72% 29.97 1014.8
16 23:53 S 13 G 23 10.00 Fair CLR 61 48.9 65% 29.96 1014.4
16 22:53 S 13 G 24 10.00 Fair CLR 62.1 48.9 84 62.1 62% 29.95 1014.2
16 21:53 S 10 G 23 10.00 Fair CLR 64 48.9 58% 29.94 1013.8
16 20:53 SW 13 G 20 10.00 Fair CLR 66 50 56% 29.93 1013.5
16 19:53 SW 13 10.00 Fair CLR 72 52 50% 29.92 1013.0
16 18:53 S 14 G 23 10.00 Fair CLR 77 52 42% 78 29.9 1012.5
16 17:53 SW 15 G 24 10.00 Fair CLR 81 46.9 30% 80 29.89 1012.2
16 16:53 SW 18 G 28 10.00 Fair CLR 84 48 87.1 71.1 29% 82 29.91 1012.7
16 15:53 SW 15 10.00 Fair CLR 86 50 29% 84 29.92 1013.2
16 14:53 S 9 10.00 Fair CLR 84 52 33% 82 29.93 1013.6
16 13:53 SW 12 10.00 Fair CLR 82.9 51.1 33% 81 29.95 1014.1
16 12:53 SW 16 G 24 10.00 Fair CLR 79 52 39% 79 29.97 1014.7
16 11:53 SW 12 G 20 10.00 Fair CLR 75 53.1 46% 78 29.97 1014.9
16 10:53 S 12 10.00 Fair CLR 71.1 52 72 60.1 51% 29.98 1015.0
16 09:53 S 13 G 21 10.00 Fair CLR 69.1 52 55% 29.98 1015.1
16 08:53 S 13 G 22 10.00 Fair CLR 64.9 51.1 61% 29.98 1015.1
16 07:53 SW 8 G 20 10.00 Fair CLR 63 51.1 65% 29.97 1014.9
16 06:53 S 8 10.00 Fair CLR 60.1 50 70% 29.96 1014.4
16 05:53 Vrbl 6 10.00 Fair CLR 60.1 48.9 67% 29.95 1014.0
16 04:53 S 5 10.00 Fair CLR 60.1 48.9 66.9 60.1 67% 29.93 1013.3
16 03:53 Calm 10.00 Fair CLR 61 48.9 65% 29.92 1013.1
16 02:53 S 7 10.00 Fair CLR 62.1 48.9 62% 29.92 1013.0
16 01:53 S 8 10.00 Fair CLR 63 48.9 60% 29.92 1013.0
16 00:53 SW 12 10.00 Fair CLR 64 48.9 58% 29.91 1012.8
15 23:53 S 6 10.00 Fair CLR 66 50 56% 29.92 1013.0
15 22:53 S 7 10.00 Fair CLR 66 51.1 89.1 66 59% 29.91 1012.8
15 21:53 SW 8 10.00 Fair CLR 68 52 57% 29.9 1012.5
15 20:53 SW 10 10.00 Fair CLR 71.1 54 55% 29.89 1012.2
15 19:53 SW 14 G 21 10.00 Fair CLR 75.9 55 48% 78 29.89 1012.0
15 18:53 SW 10 10.00 Fair CLR 82 55 40% 81 29.89 1012.0
15 17:53 SW 10 10.00 Fair CLR 86 52 31% 84 29.89 1012.2
15 16:53 S 9 10.00 Fair CLR 88 52 89.1 72 29% 86 29.9 1012.6
15 15:53 SW 12 G 20 10.00 Fair CLR 88 51.1 28% 85 29.91 1012.8
15 14:53 S 10 10.00 Fair CLR 87.1 52 30% 85 29.93 1013.5
15 13:53 SW 12 10.00 Fair CLR 84.9 50 30% 83 29.96 1014.5
15 12:53 S 10 10.00 Fair CLR 81 53.1 38% 80 29.98 1015.2
15 11:53 S 7 10.00 Fair CLR 77 54 45% 78 30 1015.8
15 10:53 SW 9 10.00 Fair CLR 72 54 72 60.1 53% 30.01 1016.2
15 09:53 SW 9 10.00 Fair CLR 69.1 54 59% 30.02 1016.5
15 08:53 S 10 10.00 Fair CLR 66 54 65% 30.02 1016.6
15 07:53 S 8 10.00 Fair CLR 62.1 53.1 73% 30.01 1016.2
15 06:53 S 6 G 17 10.00 Fair CLR 60.1 52 75% 29.99 1015.5
15 05:53 S 5 10.00 Fair CLR 60.1 52 75% 29.98 1015.1
15 04:53 S 6 10.00 Fair CLR 61 51.1 68 61 70% 29.96 1014.4
15 03:53 S 6 10.00 Fair CLR 62.1 51.1 67% 29.94 1013.8
15 02:53 S 3 10.00 Fair CLR 63 51.1 65% 29.94 1013.7
15 01:53 S 5 10.00 Fair CLR 64 51.1 63% 29.94 1013.8
15 00:53 S 5 10.00 Fair CLR 64.9 52 63% 29.94 1013.9
14 23:53 S 5 10.00 Fair CLR 66.9 53.1 61% 29.94 1013.6
14 22:53 S 8 10.00 Fair CLR 68 54 96.1 68 61% 29.93 1013.4
14 21:53 SW 10 G 18 10.00 Fair CLR 70 55 59% 29.91 1012.9
Date Time (pdt) Wind (mph) Vis. (mi.) Weather Sky Cond. Air Dwpt Max. Min. Relative Humidity Wind Chill (°F) Heat Index (°F) altimeter (in) sea level (mb) 1 hr 3 hr 6 hr
6 hour
Temperature (ºF) Pressure Precipitation (in)